Stations météo

réclame
Mon MeteoGroup
Hyeres, France (7667): Température de l'air & dewpoint: 24.09.2020 22:00:00 - 30.09.2020 22:00:00 (CEST)Hyeres, France (7667): Température de l'air 5cm: 24.09.2020 22:00:00 - 30.09.2020 22:00:00 (CEST)Hyeres, France (7667): Vitesse du vent & gusts: 24.09.2020 22:00:00 - 30.09.2020 22:00:00 (CEST)Hyeres, France (7667): Direction du vent: 24.09.2020 22:00:00 - 30.09.2020 22:00:00 (CEST)Hyeres, France (7667): reduced air pressure: 24.09.2020 22:00:00 - 30.09.2020 22:00:00 (CEST)Hyeres, France (7667): visibility: 24.09.2020 22:00:00 - 30.09.2020 22:00:00 (CEST)Hyeres, France (7667): Quantités de précipitations: 24.09.2020 22:00:00 - 30.09.2020 22:00:00 (CEST)
Date & Time tt [°C] td [°C] tt 5cm [°C] ff [km/h] ff [knt] fx [km/h] fx [knt] dd ppp [hPa] vv [km] rr [mm]
30.09.2020 22:00:00 - - - - - - - - - - -
30.09.2020 21:00:00 15,9 11,9 12,1 0 0 10 5 N 1013,6 59 0,0
30.09.2020 20:00:00 16,4 13,1 14,8 5 3 21 11 SSW 1013,4 60 0,0
30.09.2020 19:00:00 17,4 13,5 16,6 13 7 23 13 SW 1013,3 60 0,0
30.09.2020 18:00:00 19,5 13,0 22,4 13 7 22 12 SSW 1013,3 59 0,0
30.09.2020 17:00:00 20,1 12,8 24,2 16 9 28 15 SW 1013,6 60 0,0
30.09.2020 16:00:00 19,8 12,8 25,1 17 9 28 15 SW 1014,0 52 0,0
30.09.2020 15:00:00 20,8 13,5 27,1 18 10 26 14 SW 1014,5 60 0,0
30.09.2020 14:00:00 21,1 14,3 26,8 16 9 24 13 SW 1015,2 59 0,0
30.09.2020 13:00:00 21,1 14,0 30,0 11 6 20 11 S 1015,7 54 0,0
30.09.2020 12:00:00 21,7 15,1 29,3 8 5 14 8 SE 1015,9 60 0,0
30.09.2020 11:00:00 20,9 14,5 23,8 4 2 12 7 WSW 1016,0 20 0,0
30.09.2020 10:00:00 18,3 13,6 15,4 7 4 16 8 NW 1016,2 20 0,0
30.09.2020 09:00:00 15,0 12,5 12,5 8 4 19 10 NNW 1016,0 19 0,0
30.09.2020 08:00:00 13,1 11,5 10,3 9 5 12 6 NNW 1016,0 20 0,0
30.09.2020 07:00:00 12,7 10,9 10,9 5 3 8 5 N 1015,6 20 0,0
30.09.2020 06:00:00 12,3 10,7 10,2 6 3 8 4 N 1015,7 20 0,0
30.09.2020 05:00:00 12,0 10,4 9,9 0 0 11 6 N 1015,9 20 0,0
30.09.2020 04:00:00 11,5 10,1 9,5 6 3 10 5 NNE 1016,4 20 0,0
30.09.2020 03:00:00 12,8 10,5 8,5 8 4 11 6 N 1017,0 20 0,0
30.09.2020 02:00:00 11,7 10,1 8,2 6 4 9 5 N 1017,0 20 0,0
30.09.2020 01:00:00 11,7 9,8 8,5 0 0 8 4 N 1017,2 20 0,0
30.09.2020 00:00:00 12,5 10,4 8,9 6 4 10 5 N 1017,3 20 0,0
29.09.2020 23:00:00 13,0 10,4 9,3 2 1 4 2 SW 1017,3 20 0,0
29.09.2020 22:00:00 14,6 11,0 10,2 3 1 5 3 N 1017,1 20 0,0
29.09.2020 21:00:00 15,5 11,1 12,1 3 2 11 6 NNE 1016,8 20 0,0
29.09.2020 20:00:00 16,9 11,2 15,4 9 5 17 9 SSW 1016,9 20 0,0
29.09.2020 19:00:00 18,4 11,0 17,4 8 4 16 9 S 1016,6 20 0,0
29.09.2020 18:00:00 19,2 11,0 19,7 10 5 19 11 SW 1016,4 20 0,0
29.09.2020 17:00:00 20,3 11,0 21,7 14 8 21 12 SW 1016,6 20 0,0
29.09.2020 16:00:00 20,2 10,9 22,9 12 7 21 12 SW 1016,6 20 0,0
29.09.2020 15:00:00 19,9 9,5 25,9 15 8 22 12 SW 1017,1 20 0,0
29.09.2020 14:00:00 19,8 8,5 25,6 13 7 23 12 SW 1017,5 20 0,0
29.09.2020 13:00:00 19,5 8,8 22,5 15 8 24 13 SW 1017,7 20 0,0
29.09.2020 12:00:00 18,1 10,0 21,8 16 9 25 13 SW 1017,4 20 0,0
29.09.2020 11:00:00 19,0 8,9 24,1 3 2 17 9 SW 1017,3 20 0,0
29.09.2020 10:00:00 18,5 8,2 19,5 8 4 15 8 NW 1016,9 20 0,0
29.09.2020 09:00:00 16,1 8,8 13,1 7 4 13 7 NW 1016,1 58 0,0
29.09.2020 08:00:00 12,4 9,0 8,3 3 1 9 5 NNW 1015,8 60 0,0
29.09.2020 07:00:00 12,1 8,6 8,2 3 2 8 4 SSW 1015,2 60 0,0
29.09.2020 06:00:00 12,5 8,4 8,9 5 3 10 5 NNW 1014,7 60 0,0
29.09.2020 05:00:00 13,9 8,5 10,6 7 4 14 8 N 1014,9 60 0,0
29.09.2020 04:00:00 15,2 7,7 11,7 3 2 13 7 ENE 1014,6 60 0,0
29.09.2020 03:00:00 14,4 8,3 10,1 10 5 13 7 N 1014,4 60 0,0
29.09.2020 02:00:00 15,2 8,2 11,4 0 0 13 7 N 1014,5 60 0,0
29.09.2020 01:00:00 17,3 7,9 11,5 6 3 16 9 WNW 1014,0 60 0,0
29.09.2020 00:00:00 16,0 8,2 11,5 3 2 12 7 N 1013,9 60 0,0
28.09.2020 23:00:00 17,8 7,5 12,8 6 3 22 12 SSW 1013,4 60 0,0
28.09.2020 22:00:00 17,2 8,1 14,1 11 6 23 12 NW 1013,1 60 0,0
28.09.2020 21:00:00 17,1 8,2 12,7 11 6 14 8 NW 1012,4 60 0,0
28.09.2020 20:00:00 17,9 9,0 13,5 8 4 29 16 S 1011,6 60 0,0
28.09.2020 19:00:00 20,4 7,7 19,4 22 12 37 20 NW 1010,5 55 0,0
28.09.2020 18:00:00 22,1 7,9 25,0 20 11 34 19 NW 1009,6 35 0,0
28.09.2020 17:00:00 22,6 7,6 25,0 19 11 38 20 NW 1009,3 26 0,0
28.09.2020 16:00:00 22,8 8,1 22,9 24 13 49 26 WNW 1009,1 25 0,0
28.09.2020 15:00:00 21,8 7,2 22,1 16 9 60 32 NW 1008,9 60 0,0
28.09.2020 14:00:00 22,2 6,8 23,6 29 15 48 26 WNW 1008,4 42 0,0
28.09.2020 13:00:00 20,5 8,5 20,7 22 12 56 31 W 1008,1 53 0,0
28.09.2020 12:00:00 18,5 7,9 19,8 36 19 51 28 WSW 1007,9 60 0,0
28.09.2020 11:00:00 17,4 8,3 18,7 22 12 38 20 SW 1007,8 60 0,0
28.09.2020 10:00:00 16,4 8,1 15,8 15 8 34 18 SW 1007,4 59 0,0
28.09.2020 09:00:00 15,2 7,0 14,6 14 8 24 13 WSW 1007,5 60 0,0
28.09.2020 08:00:00 14,5 6,1 11,9 10 5 23 12 W 1007,7 60 0,0
28.09.2020 07:00:00 14,4 5,7 11,4 14 8 26 14 WNW 1007,4 60 0,0
28.09.2020 06:00:00 13,3 5,9 9,8 9 5 18 10 NW 1007,4 60 0,0
28.09.2020 05:00:00 12,8 5,2 6,0 6 4 22 12 W 1007,6 60 0,0
28.09.2020 04:00:00 10,0 4,8 6,0 6 4 12 6 N 1007,8 60 0,0
28.09.2020 03:00:00 12,4 4,6 6,8 7 4 20 11 NW 1008,0 60 0,0
28.09.2020 02:00:00 11,1 4,8 6,4 7 4 15 8 NW 1008,1 60 0,0
28.09.2020 01:00:00 13,2 4,3 10,0 9 5 26 14 W 1008,2 60 0,0
28.09.2020 00:00:00 14,3 4,6 11,7 16 8 28 15 NW 1007,9 60 0,0
27.09.2020 23:00:00 13,9 4,5 11,2 8 5 26 14 WNW 1008,0 60 0,0
27.09.2020 22:00:00 14,3 4,6 12,8 14 7 32 17 WNW 1007,8 60 0,0
27.09.2020 21:00:00 15,0 4,9 14,2 15 8 31 17 WNW 1007,0 60 0,0
27.09.2020 20:00:00 15,1 4,7 14,0 16 9 35 19 WNW 1006,3 60 0,0
27.09.2020 19:00:00 16,4 4,4 15,6 18 10 48 26 NW 1005,6 60 0,0
27.09.2020 18:00:00 17,4 4,0 18,0 22 12 50 27 NW 1005,0 60 0,0
27.09.2020 17:00:00 19,8 4,7 22,8 19 11 36 20 NNW 1004,7 60 0,0
27.09.2020 16:00:00 19,6 4,9 19,6 29 16 48 26 WNW 1005,1 60 0,0
27.09.2020 15:00:00 20,1 3,3 21,6 16 9 39 21 NNW 1004,8 60 0,0
27.09.2020 14:00:00 20,6 1,9 25,8 11 6 34 18 N 1005,0 51 0,0
27.09.2020 13:00:00 20,1 2,4 24,9 19 10 38 21 NNW 1005,2 47 0,0
27.09.2020 12:00:00 18,7 1,2 23,9 20 11 40 22 NNW 1005,3 51 0,0
27.09.2020 11:00:00 17,9 1,4 22,2 23 12 42 23 NNW 1005,2 57 0,0
27.09.2020 10:00:00 15,9 0,4 17,5 24 13 52 28 N 1004,6 60 0,0
27.09.2020 09:00:00 14,0 0,6 11,4 29 15 45 25 NNW 1003,1 60 0,0
27.09.2020 08:00:00 11,2 0,6 9,2 16 9 29 16 NNW 1002,0 53 0,0
27.09.2020 07:00:00 10,6 1,1 5,1 16 9 28 15 N 1001,2 60 0,0
27.09.2020 06:00:00 9,0 1,2 5,1 2 1 22 12 N 1001,1 60 0,0
27.09.2020 05:00:00 11,7 0,7 9,8 10 5 37 20 NW 1001,7 60 0,0
27.09.2020 04:00:00 11,7 1,0 9,9 8 4 29 15 NNW 1001,7 60 0,0
27.09.2020 03:00:00 13,2 0,9 12,4 12 7 34 19 WNW 1002,3 60 0,0
27.09.2020 02:00:00 13,7 1,0 12,7 15 8 34 18 WNW 1002,9 60 0,0
27.09.2020 01:00:00 14,1 0,0 12,8 9 5 34 18 N 1003,1 60 0,0
27.09.2020 00:00:00 14,8 0,2 13,8 25 14 41 22 WNW 1003,2 60 0,0
26.09.2020 23:00:00 15,6 -0,2 14,8 26 14 48 26 W 1004,6 60 0,0
26.09.2020 22:00:00 15,8 0,4 14,6 29 16 58 31 W 1004,4 60 0,0
26.09.2020 21:00:00 15,8 1,1 14,5 25 13 42 23 WNW 1004,8 60 0,0
26.09.2020 20:00:00 16,5 1,0 15,0 27 14 48 26 WNW 1004,9 60 0,0
26.09.2020 19:00:00 17,3 1,3 16,8 23 13 53 28 WNW 1004,7 57 0,0
26.09.2020 18:00:00 18,2 0,8 18,7 33 18 74 40 WNW 1004,6 42 0,0
26.09.2020 17:00:00 18,8 1,7 20,0 33 18 70 38 NW 1004,6 26 0,0
26.09.2020 16:00:00 19,5 1,4 22,2 45 24 67 36 WNW 1004,7 15 0,0
26.09.2020 15:00:00 19,3 0,8 22,3 40 22 72 39 WNW 1004,6 18 0,0
26.09.2020 14:00:00 19,3 1,3 23,0 34 19 71 38 NW 1004,7 19 0,0
26.09.2020 13:00:00 19,0 1,5 22,6 37 20 79 43 NW 1004,8 18 0,0
26.09.2020 12:00:00 18,7 1,7 20,0 36 20 79 43 NW 1005,0 20 0,0
26.09.2020 11:00:00 17,2 2,0 19,3 44 24 75 41 NW 1005,0 22 0,0
26.09.2020 10:00:00 16,2 -0,1 16,4 32 18 64 35 NNW 1005,3 23 0,0
26.09.2020 09:00:00 14,8 0,6 14,3 39 21 78 42 WNW 1005,0 23 0,0
26.09.2020 08:00:00 14,3 0,9 12,5 39 21 71 38 NW 1003,9 12 0,0
26.09.2020 07:00:00 13,8 0,4 12,5 34 18 70 38 NW 1004,3 60 0,0
26.09.2020 06:00:00 13,8 0,4 12,5 43 23 73 39 NW 1004,3 60 0,0
26.09.2020 05:00:00 13,9 1,2 12,2 35 19 68 37 WNW 1005,0 60 0,0
26.09.2020 04:00:00 13,6 1,9 12,3 32 17 74 40 NW 1004,5 60 0,0
26.09.2020 03:00:00 13,9 1,8 12,7 31 17 79 43 NW 1004,7 60 0,0
26.09.2020 02:00:00 14,2 2,1 13,0 48 26 90 49 NW 1004,3 60 0,0
26.09.2020 01:00:00 14,8 2,3 13,7 33 18 66 36 NW 1004,2 60 0,0
26.09.2020 00:00:00 15,2 2,7 13,6 27 15 65 35 WNW 1004,3 60 0,0
25.09.2020 23:00:00 15,3 3,7 14,0 24 13 45 25 NW 1005,0 60 0,0
25.09.2020 22:00:00 15,7 3,8 14,3 18 10 59 32 WNW 1005,2 60 0,0
25.09.2020 21:00:00 16,8 3,8 15,5 26 14 76 41 WNW 1004,7 60 0,0
25.09.2020 20:00:00 17,3 3,9 16,2 41 22 66 36 W 1003,7 60 0,0
25.09.2020 19:00:00 18,2 4,0 17,7 29 16 56 30 W 1003,8 60 0,0
25.09.2020 18:00:00 18,6 5,4 18,1 32 17 57 31 W 1003,7 37 0,0
25.09.2020 17:00:00 18,6 5,1 18,9 30 16 68 37 NW 1003,6 60 0,0
25.09.2020 16:00:00 19,1 6,9 19,4 35 19 56 31 W 1003,6 60 0,0
25.09.2020 15:00:00 19,8 6,5 21,9 36 19 61 33 W 1003,6 24 0,0
25.09.2020 14:00:00 19,6 6,0 19,2 34 18 56 30 W 1003,8 25 0,0
25.09.2020 13:00:00 18,0 5,2 19,7 34 18 52 28 W 1004,4 60 0,0
25.09.2020 12:00:00 17,5 5,7 17,5 33 18 55 30 W 1004,8 60 0,0
25.09.2020 11:00:00 16,8 6,0 17,6 30 16 51 27 W 1005,4 50 0,0
25.09.2020 10:00:00 16,6 5,5 16,4 35 19 54 29 W 1005,0 60 0,0
25.09.2020 09:00:00 16,8 3,8 16,3 31 17 63 34 WNW 1005,2 60 0,0
25.09.2020 08:00:00 17,0 6,8 15,6 18 10 50 27 WNW 1005,0 60 0,0
25.09.2020 07:00:00 17,1 12,8 14,9 22 12 46 25 WNW 1004,7 45 0,2
25.09.2020 06:00:00 19,6 10,8 18,6 13 7 34 18 W 1004,0 60 0,0
25.09.2020 05:00:00 20,5 10,3 19,3 22 12 39 21 W 1004,6 60 0,0
25.09.2020 04:00:00 21,0 11,3 19,9 11 6 22 12 W 1004,6 60 0,0
25.09.2020 03:00:00 21,9 8,7 19,2 8 4 18 10 WNW 1004,9 60 0,0
25.09.2020 02:00:00 20,7 14,3 18,6 10 6 23 12 WNW 1005,2 60 0,0
25.09.2020 01:00:00 20,0 17,2 18,5 10 5 14 8 NW 1005,4 46 0,0
25.09.2020 00:00:00 21,3 17,1 19,7 9 5 21 11 WNW 1005,9 19 0,0
24.09.2020 23:00:00 22,3 18,3 21,2 13 7 29 15 W 1006,3 20 0,0
24.09.2020 22:00:00 22,8 18,6 21,8 16 9 33 18 W 1006,9 48 0,0

tt = Température de l'air
td = dewpoint
tt 5cm = Température de l'air 5cm
ff = Vitesse du vent
fx = gusts
dd = Direction du vent
ppp = reduced air pressure
vv = visibility
rr = Quantités de précipitations

stations d'obs. à proximité